Location: Panfield
(51.8833°N, 0.5167°E)
Time: 01:51:28
(UTC+00:00)

Daily predictions for brighter satellites

Satellite Brightness Start Highest point End
(mag) Time Altitude Azimuth Time Altitude Azimuth Time Altitude Azimuth
Meteor 1-24 Rocket 3.9 00:02:19 20° SSW 00:06:27 75° WNW 00:12:06 10° N
USA 234 3.9 00:00:09 10° ENE 00:06:33 59° N 00:12:57 10° W
Cosmos 2227 Rocket 2.7 00:05:20 22° S 00:08:41 45° ESE 00:14:03 10° NE
Cosmos 304 Rocket 3.8 00:06:24 20° SSW 00:09:38 80° WNW 00:14:26 10° NNE
Cosmos 1892 2.5 00:09:05 30° S 00:10:38 69° E 00:14:09 10° NNE
Cosmos 332 Rocket 4.1 00:09:47 24° S 00:12:34 54° ESE 00:17:20 10° NNE
Cosmos 2181 Rocket 4.1 00:06:36 10° NNW 00:12:46 66° W 00:16:56 21° S
Cosmos 1980 4.1 00:07:52 10° NW 00:13:19 48° WSW 00:16:41 22° S
CENTAUR R/B 3.3 00:12:18 21° SSE 00:15:34 36° ESE 00:21:49 10° NE
GEOS 3 Rocket 3.9 00:13:58 10° NE 00:18:59 49° SE 00:22:03 22° SSW
H-2A R/B 2.0 00:17:16 10° NNE 00:21:36 87° WNW 00:24:02 25° SSW
Cosmos 1538 Rocket 4.1 00:17:36 10° NNW 00:22:49 76° ENE 00:27:12 15° SSE
Cosmos 1503 Rocket 4.2 00:19:44 18° SW 00:23:43 73° WNW 00:29:02 10° NNE
Cosmos 1777 Rocket 4.0 00:21:13 20° SSW 00:24:56 83° WNW 00:30:16 10° NNE
SL-4 R/B 2.8 00:21:28 10° W 00:25:07 31° SSW 00:26:25 26° S
Cosmos 2151 Rocket 4.1 00:22:33 10° NNW 00:26:48 47° W 00:29:10 23° SSW
Cosmos 1174 4.5 00:23:30 10° NW 00:28:21 46° WSW 00:30:27 25° S
NOSS 8 (A) 4.3 00:25:40 10° NW 00:28:35 55° SW 00:30:08 27° SSE
Cosmos 2297 Rocket 2.3 00:24:22 17° SW 00:28:45 80° WNW 00:34:27 10° NNE
Cosmos 2074 Rocket 4.0 00:24:31 21° S 00:28:52 87° E 00:35:08 10° N
Cosmos 2219 4.0 00:27:36 19° SSE 00:31:02 38° ESE 00:36:11 10° NE
Cosmos 2084 Rocket 3.5 00:29:51 24° SSW 00:32:14 60° SE 00:36:19 10° NE
ALOS 2 4.5 00:30:59 13° SW 00:33:16 19° W 00:36:25 10° NW
Okean 2 Rocket 3.7 00:29:19 10° NNW 00:33:35 45° W 00:36:03 22° SSW
Cosmos 1455 Rocket 3.5 00:29:53 10° N 00:34:18 59° ENE 00:37:36 17° SSE
ATLAS CENTAUR R/B 4.1 00:36:58 10° NW 00:39:04 14° NNW 00:41:13 10° NNE
Aureole 1 Rocket 4.0 00:38:34 19° SSE 00:40:28 31° ESE 00:44:20 10° NE
Cosmos 1825 2.4 00:42:47 25° SW 00:44:30 51° WNW 00:47:52 10° N
Cosmos 1674 Rocket 4.0 00:41:51 21° SW 00:44:36 51° WNW 00:48:51 10° N
NOSS 3 (A) 4.4 00:45:12 36° NE 00:45:12 36° NE 00:46:20 10° NE
Cosmos 1378 Rocket 4.3 00:43:13 19° SW 00:46:03 43° WNW 00:50:16 10° N
Cosmos 923 Rocket 4.5 00:45:37 10° NNW 00:50:52 62° ENE 00:56:03 10° SE
Cosmos 1025 Rocket 3.0 00:50:34 23° S 00:53:15 87° E 00:57:35 10° N
Cosmos 2221 Rocket 4.2 00:51:16 19° SW 00:54:11 46° WNW 00:58:30 10° N
BREEZE-M DEB (TANK) 2.9 00:51:06 10° W 00:57:09 38° SSW 00:58:59 18° SSE
Resurs 1-4 Rocket 3.9 00:54:05 10° NE 00:58:10 22° E 01:02:14 10° SE
NOSS 3-2 (A) 3.8 00:56:57 20° S 01:00:19 43° ESE 01:06:08 10° NE
Cosmos 1606 3.6 00:57:32 10° N 01:00:57 41° ENE 01:04:04 12° SE
Nadezhda 3 Rocket 4.2 00:55:25 10° NNW 01:01:37 61° W 01:06:12 18° SSW
Cosmos 2263 Rocket 2.8 00:58:49 18° S 01:02:39 46° ESE 01:07:58 10° NE
CZ-4C R/B 2.7 00:58:24 10° WSW 01:03:09 57° NW 01:09:15 10° NE
Cosmos 1898 Rocket 4.1 01:01:19 18° S 01:04:55 46° ESE 01:09:52 10° NE
COSMOS 2455 3.8 00:59:45 10° WSW 01:05:32 46° NW 01:11:22 10° NNE
Orbus 7S? 2.7 01:03:13 10° WNW 01:05:53 82° NNE 01:09:20 10° ESE
MOZ.5/SAFIR/RUBIN 5/SL-8 3.9 01:05:48 12° SSE 01:10:06 72° ENE 01:14:44 10° NNW
BlueWalker 3 2.0 01:09:21 10° W 01:13:06 76° N 01:16:52 10° ENE
Helios 1A Rocket 2.7 01:12:04 20° S 01:14:35 68° WSW 01:18:23 10° NNW
Cosmos 1461 4.2 01:14:31 16° SSE 01:16:41 25° ESE 01:19:54 10° ENE
Cosmos 2366 rocket 4.5 01:11:40 13° SSE 01:17:11 57° E 01:23:17 10° NNE
BREEZE-M DEB (TANK) 2.9 01:22:04 10° W 01:25:57 10° SE 01:26:00 10° SE
Cosmos 1680 Rocket 3.5 01:28:00 10° NNW 01:33:14 86° WSW 01:38:27 10° SSE
SL-19 R/B 3.8 01:30:17 10° N 01:33:22 61° WNW 01:35:06 21° SW
Cosmos 1818 3.6 01:28:47 10° NW 01:34:15 68° SW 01:39:39 10° SSE
In-Cosmos 22 Rocket 4.3 01:29:58 16° SSW 01:34:39 84° WNW 01:40:32 10° NNE
Cosmos 2112 Rocket 4.0 01:30:09 10° NNW 01:35:22 86° ENE 01:40:34 10° SSE
SL-16 R/B 2.8 01:31:40 10° NW 01:36:53 38° WSW 01:41:09 15° S
SL-16 R/B 3.6 01:34:05 10° SE 01:39:58 46° ENE 01:45:53 10° N
Cosmos 1603 4.2 01:36:06 10° NNW 01:41:51 65° NE 01:47:33 10° SE
Cosmos 2237 Rocket 4.2 01:41:32 10° WNW 01:43:14 11° W 01:44:56 10° WSW
Cosmos 1869 3.2 01:40:05 10° NNW 01:43:46 63° W 01:46:40 15° S
Cosmos 1544 Rocket 3.6 01:41:28 10° NNW 01:45:55 73° W 01:49:57 12° S
Cosmos 292 Rocket 3.9 01:43:03 15° SW 01:46:55 68° WNW 01:51:45 10° NNE
SL-8 Rocket 4.0 01:43:18 14° SSW 01:48:41 81° W 01:54:56 10° N
USA 234 3.8 01:42:45 10° E 01:49:12 65° NNE 01:55:41 10° WNW
Cosmos 2082 3.7 01:45:35 15° SSW 01:50:21 89° WNW 01:56:01 10° NNE
IDEFIX/ARIANE 42P 2.8 01:45:06 10° NNE 01:50:22 70° ESE 01:55:13 12° S
Cosmos 2228 3.0 01:47:08 10° NNW 01:51:29 84° W 01:55:47 10° S
Cosmos 1943 3.1 01:46:28 10° NNW 01:52:07 78° WSW 01:57:43 10° SSE
Cosmos 2227 Rocket 3.1 01:47:27 10° WSW 01:52:49 42° NW 01:58:11 10° NNE
CZ-2C R/B 3.8 01:50:01 10° NNE 01:55:22 50° E 02:00:24 10° S
H-2A R/B 4.4 01:54:22 10° NNW 01:56:37 14° NW 01:58:50 10° W
GEOS 3 Rocket 4.4 01:52:03 10° NE 01:57:03 49° NW 02:01:58 10° WSW
Cosmos 1437 Rocket 3.9 01:53:49 10° SSE 01:57:22 37° E 02:00:53 10° NNE
CZ-2C R/B 2.6 01:52:13 10° SSE 01:57:31 84° WSW 02:02:58 10° NNW
CZ-2D R/B 2.5 01:53:06 10° NNE 01:58:26 60° ESE 02:03:38 10° S
Cosmos 1975 Rocket 3.9 01:58:43 14° SW 02:02:11 39° WNW 02:06:21 10° N
Meteor 1-11 4.5 01:57:52 13° SSW 02:02:59 65° WNW 02:08:48 10° N
Cosmos 1727 Rocket 4.1 01:57:00 10° N 02:03:22 86° E 02:09:44 10° S
COBE Rocket 4.2 01:59:47 10° N 02:04:54 67° WNW 02:09:38 12° SSW
CENTAUR R/B 2.9 01:59:46 10° WSW 02:05:45 67° NW 02:13:16 10° NE
H-2A R/B 3.4 02:04:18 10° NNE 02:08:18 88° E 02:12:02 12° SSW
USA 238 DEB 4.4 02:06:40 10° S 02:12:24 40° ESE 02:18:36 10° NE
USA 238 4.4 02:06:44 10° S 02:12:27 40° ESE 02:18:39 10° NE
Cosmos 2297 Rocket 4.1 02:09:16 10° W 02:13:41 23° NW 02:18:08 10° NNE
NPP 3.7 02:09:29 10° NNE 02:14:55 81° WNW 02:20:17 10° SSW
Cosmos 2219 3.9 02:09:41 10° SW 02:15:06 47° NW 02:20:32 10° NNE
ATLAS CENTAUR R/B 4.4 02:16:27 10° NNW 02:18:10 13° N 02:19:57 10° NE
Cosmos 2341 Rocket 4.5 02:13:09 11° SSW 02:18:52 50° WNW 02:24:56 10° N
Cosmos 1606 Rocket 3.8 02:17:00 10° N 02:21:28 77° ENE 02:25:54 10° SSE
ASTEX 1 3.7 02:16:56 10° SSE 02:21:45 68° E 02:26:36 10° N
Aureole 1 Rocket 4.3 02:20:13 10° WSW 02:23:36 31° NW 02:27:48 10° NNE
Cosmos 921 Rocket 2.9 02:19:27 10° NNW 02:23:44 89° W 02:27:56 10° SSE
Cosmos 1867 4.4 02:18:56 10° S 02:24:01 42° ESE 02:29:09 10° NE
Cosmos 2227 4.4 02:18:50 10° SSW 02:24:32 72° ESE 02:30:18 10° NNE
ADEOS II 2.4 02:20:22 10° NNE 02:25:36 68° ESE 02:30:50 10° S
Cosmos 494 Rocket 4.0 02:21:53 10° NNW 02:27:08 78° WSW 02:32:22 10° SSE
Cosmos 1536 Rocket 3.7 02:27:14 10° SSW 02:31:39 66° WNW 02:36:05 10° N
Cosmos 1606 4.4 02:32:56 10° NW 02:35:20 17° W 02:37:45 10° SW
Cosmos 1238 Rocket 4.5 02:33:18 10° N 02:36:33 29° ENE 02:39:26 10° SE
Cosmos 1726 Rocket 3.7 02:32:36 10° N 02:37:05 82° ENE 02:41:31 10° SSE
Resurs 1-4 Rocket 2.3 02:33:11 10° N 02:38:26 67° WNW 02:43:40 10° SSW
Cosmos 724 4.3 02:36:24 10° NW 02:42:15 88° SW 02:48:05 10° SE
Cosmos 1937 Rocket 4.2 02:38:39 10° SW 02:43:43 45° WNW 02:48:45 10° NNE
Iridium 4 Rocket 4.1 02:41:34 10° N 02:45:49 49° E 02:50:23 10° SSE
Cosmos 2263 Rocket 3.1 02:41:27 10° WSW 02:46:41 40° NW 02:51:55 10° NNE
NOSS 3-2 (A) 4.0 02:45:36 10° WSW 02:51:00 54° NNW 02:57:33 10° NE
Cosmos 1821 Rocket 4.2 02:46:52 10° SSW 02:52:50 57° WNW 02:58:55 10° N
BREEZE M DEB (TANK) 4.4 02:41:56 10° W 02:57:08 70° SSW 03:01:21 10° ESE
